Regional Weather Roundup
Issued by NWS

Home | Current Version | Previous Version | Text Only | Print | Product List | Glossary Off
Versions: 1 2 3 4 5 6 7 8 9 10 11 12 13 14 15 16 17 18 19 20 21 22 23 24 25 26 27 28 29 30 31 32 33 34 35 36 37 38 39 40 41 42 43 44 45 46 47 48 49 50

000
ASUS43 KMKX 240111
RWRWI

WISCONSIN REGIONAL WEATHER ROUNDUP
NATIONAL WEATHER SERVICE MILWAUKEE/SULLIVAN WI
800 PM CDT SUN JUL 23 2017

NOTE: "FAIR" INDICATES FEW OR NO CLOUDS BELOW 12,000 FEET WITH NO
SIGNIFICANT WEATHER AND/OR OBSTRUCTIONS TO VISIBILITY.

WIZ001-002-006>008-014>016-023>028-240200-
NORTHWEST WISCONSIN

CITY           SKY/WX    TMP DP  RH WIND       PRES   REMARKS
SUPERIOR ARPT  NOT AVBL
ASHLAND        CLOUDY    60  57  89 NE6       30.03R
HAYWARD        CLOUDY    62  56  80 NE7       30.02R
SIREN          CLEAR     66  57  72 CALM      30.01S
CUMBERLAND     CLOUDY    63  55  77 NE8       30.01R
RICE LAKE      CLOUDY    64  57  76 N10       30.01R
CHETEK         CLOUDY    65  58  79 N7        30.00R
LADYSMITH      CLOUDY    64  56  75 N9G16     30.00S
EAU CLAIRE     CLOUDY    67  58  72 NE8       29.96R
MENOMONIE      CLOUDY    67  58  71 N12       29.98S
NEW RICHMOND   CLOUDY    67  56  70 NE7       30.00S
OSCEOLA        MOCLDY    69  57  67 NE7       30.02S
$$

WIZ003>005-009-010-017-018-240200-
NORTH CENTRAL WISCONSIN

CITY           SKY/WX    TMP DP  RH WIND       PRES   REMARKS
MANITOWISH WTR CLOUDY    59  59 100 NE3       30.00S
ARBOR VITAE    CLOUDY    62  56  80 NE10      29.99S
WOODRUFF       CLOUDY    62  56  80 NE10      29.99S
RHINELANDER    CLOUDY    62  56  80 NE7       29.99S
EAGLE RIVER    CLOUDY    60  53  77 N6        30.00R
LAND O LAKES   PTCLDY    60  55  82 NE6       30.02S
PHILLIPS       CLOUDY    62  58  87 N6        29.99R
TOMAHAWK         N/A     62  54  76 NE8       29.98R
MEDFORD        CLOUDY    64  57  79 N8        29.97R
MERRILL        NOT AVBL
$$

WIZ029-030-035-036-043>047-240200-
CENTRAL WISCONSIN

CITY           SKY/WX    TMP DP  RH WIND       PRES   REMARKS
WAUSAU         MOCLDY    67  57  70 NE8       29.93R
MOSINEE        PTCLDY    68  57  68 N10G18    29.94R
MARSHFIELD     PTCLDY    67  56  67 N10       29.94R
STEVENS POINT  CLEAR     68  56  66 N9        29.93R
WAUPACA        PTCLDY    74  59  59 N12G18    29.90R
WAUTOMA        MOCLDY    75  62  64 N7        29.88R
WISC RAPIDS    PTCLDY    70  59  68 N15       29.93R
CAMP DOUGLAS   CLEAR     71  61  70 NW8       29.90R
$$

WIZ011>013-019>022-031-037>040-048>050-240200-
NORTHEAST WISCONSIN

CITY           SKY/WX    TMP DP  RH WIND       PRES   REMARKS
ANTIGO         CLOUDY    63  55  74 NE12      29.96R
SHAWANO        CLOUDY    69  57  65 NE16      29.92R
OCONTO         CLOUDY    64  56  73 N10G20    29.91R
STURGEON BAY     N/A     64  59  83 N15G23    29.90R
GREEN BAY      MOCLDY    67  59  75 N18       29.90R
MANITOWOC      CLOUDY    67  64  90 N6        29.88R
APPLETON       MOCLDY    70  55  60 NE17G23   29.88
CLINTONVILLE   CLEAR     68  54  60 NE14G23   29.91R
OSHKOSH        CLOUDY    72  64  76 NE13      29.86R
$$

WIZ032>034-041-042-053>061-240200-
SOUTHWEST WISCONSIN

CITY           SKY/WX    TMP DP  RH WIND       PRES   REMARKS
LA CROSSE      CLEAR     74  61  63 N14       29.91R
SPARTA         CLEAR     70  60  69 NW6       29.92R
VIROQUA        CLEAR     70  61  72 CALM      29.92R
BOSCOBEL       CLEAR     75  61  61 N8        29.89R
PRAIRIE DU CHI CLEAR     75  58  56 N8        29.89R
PLATTEVILLE    CLEAR     73  63  70 N7        29.89R
$$

WIZ056-057-062-063-064-067-068-240200-
SOUTH CENTRAL WISCONSIN

CITY           SKY/WX    TMP DP  RH WIND       PRES   REMARKS
REEDSBURG      CLEAR     73  61  65 N10       29.88S
BARABOO/DELLS  CLEAR     74  58  57 NW6       29.88R
LONE ROCK      PTCLDY    75  62  64 N9        29.87R
MINERAL POINT  CLEAR     73  63  68 NW5       29.89S
MADISON        PTCLDY    75  61  61 NW8       29.85R
MIDDLETON      CLEAR     74  63  66 NW6       29.87R
WATERTOWN      MOCLDY    76  63  64 NW7       29.84R
MONROE         CLEAR     73  61  64 NW5       29.86S
JANESVILLE     PTCLDY    77  64  65 CALM      29.84R
$$

WIZ051-052-058>065-066-070>072-240200-
SOUTHEAST WISCONSIN

CITY           SKY/WX    TMP DP  RH WIND       PRES   REMARKS
MILWAUKEE      MOCLDY    74  68  81 NE7       29.83R
WAUKESHA       MOCLDY    73  61  64 NE9       29.85R
MILWAUKEE/TIMM MOCLDY    73  63  68 NE5       29.84R
RACINE         PTCLDY    73  67  81 NE6       29.84R
KENOSHA        CLEAR     74  68  81 W3        29.82R
FOND DU LAC    MOCLDY    73  62  68 NE16G26   29.86R
SHEBOYGAN      CLOUDY    68  65  90 NE12G22   29.86R
WEST BEND      MOCLDY    70  64  83 E10       29.85R
JUNEAU         MOCLDY    73  63  71 N5        29.86R
$$

LSZ147-162-240200-
LAKE SUPERIOR

STATION/POSITION TIME  TEMP    WIND        PRES    WAVE
                       AIR SEA DIR/SP/G            HT/PER
                 (UTC) (F)     (DEG/KT/KT) (MB)    (FT/S)
W MID LAKE BUOY  0050   50 48  300/  6/  8 1016.6R   2/ 4
DEVILS ISLAND    0100   57      20/  4/  4 1017.0R
SAXON HARBOR     0040   61      20/  5/  6 1015.9S
$$

LMZ867-665-643>646-240200-
LAKE MICHIGAN

STATION/POSITION TIME  TEMP    WIND        PRES    WAVE
                       AIR SEA DIR/SP/G            HT/PER
                 (UTC) (F)     (DEG/KT/KT) (MB)    (FT/S)
CHAMBERS ISLAND  0040   65     340/ 21/ 27 1011.9R
S GREEN BAY BUOY 0100   67 72  350/ 17/ 21 1012.4
N MID LAKE BUOY  2350   63 67   30/ 19/ 23 1011.0    3/ 4
NORTHPORT PIER   0040   65     360/ 16/ 21 1012.2R
KEWAUNEE LAKESHO 0048   66     360/  9/ 17 1011.3R
SHEBOYGAN LAKESH 0100   67      30/ 18/ 20 1010.5R
PORT WASHINGTON  0040   71      30/  9/ 15 1011.2R
ATWATER BUOY     0039   71 70   40/ 14/ 16 1010.4R
MILWAUKEE LAKESH 0050   71      30/ 13/ 14   N/A
S MID LAKE BUOY  0050   72 71   20/ 10/ 12 1009.2R   0
KENOSHA   LAKESH 0100   75      60/  7/  8 1009.5
$$

TC  - TEMPERATURE IN CELSIUS
VSB - VISIBILITY IN STATUTE MILES
WCI - WIND CHILL INDEX
HX  - HEAT INDEX





USA.gov is the U.S. government's official web portal to all federal, state and local government web resources and services.